Volver al catálogo

SL-3 DEB

ActivoPO
NORAD 17755·DEBRIS·🇷🇺 Russia

Lanzado Dec 14, 1982 desde Plesetsk Cosmodrome

Loading…

Próximos Pases (próximas 24 horas)

TLE

ActualizadoSource: Space-Track

Época: Sep 14, 2026, 09:25 UTC

1 17755U 82116D   26257.39240663  .00000027  00000-0  67158-5 0  9999
2 17755  81.2532 298.3020 0070021  97.9913 275.4889 14.14715970257534

Sigue SL-3 DEB en tiempo real con AllMySat

Download on the App Store